Location: Воронеж
(51.6606°N, 39.2006°E)
Time: 11:41:08
(UTC+03:00)

ISS - Visible Passes

Search period start: 05 December 2023 00:00
Search period end: 15 December 2023 00:00
Orbit: 415 x 417 km, 51.6° (Epoch: 05 December)

Date Brightness Start Highest point End Pass type
(mag) Time Alt. Az. Time Alt. Az. Time Alt. Az.
05 Dec -1.8 17:07:58 10° W 17:11:00 32° SSW 17:14:02 10° SE visible
06 Dec -0.4 17:57:22 10° WSW 17:58:34 11° SW 17:59:45 10° SSW visible
07 Dec -0.7 17:07:51 10° W 17:10:07 17° SW 17:12:22 10° S visible
